Погода в Гвоздеце

Украина / Ивано-Франковская область     48°34′30″N   25°16′53″E
темп.,
°C
ветер,
м/с
пор.,
м/с
влажн.,
%
обл.,
%
осадки,
мм/ч
давл.,
гПа
погр.,
м
27 ноября, сб
сб2723:00+5ю1275100 0.0 99436
02:00+6ю2271100 0.0 99437
05:00+7юз2373100 0.0 99331
08:00+6ююв1176100 0.0 99510
11:00+8зюз2369100 0.0 99751
14:00+10з2664100 0.0 998854
17:00+7зюз237950 0.0 100037
20:00+5ююв118230 0.0 100110
28 ноября, вс
вс2823:00+4ю228212 0.0 100211
02:00+4ююв3380100 0.0 100241
05:00+5юв2377100 0.0 100144
08:00+5вюв1277100 0.0 100020
11:00+7в0169100 0.0 100062
14:00+9в1262100 0.0 99983
17:00+7юв2271100 0.0 99825
20:00+6юв2280100 0.0 99726
29 ноября, пн
пн2923:00+7юв3479100 0.0 99561
02:00+6вюв2478100 0.0 99267
05:00+6ююв227752 0.0 99020
08:00+5юз228282 0.0 99015
11:00+3сз71084100 0.1 995375
14:00+5ссз6867100 0.1 995519
17:00+2сз6117456 0.0 998511
20:00+2сз6127095 0.0 1000652
30 ноября, вт
вт3023:000сз497775 0.0 1001320
02:00−1сз257874 0.0 1004168
05:00−1з2477100 0.0 100490
08:00−1зсз3875100 0.0 1006240
11:00+2сз695374 0.0 10071053
14:00+3сз7105446 0.0 10061074
17:000сз49667 0.0 1007328
20:00−2юз12783 0.0 100713
1 декабря, ср
ср123:00−2ю227495 0.0 100625
02:00−1юв2261100 0.0 100518
05:00+3з61349100 0.1 1003897
08:00+3з71348100 0.1 1004509
11:00+5зсз7124899 0.0 10061549
14:00+6з61145100 0.0 10071913
17:00+3зюз2261100 0.0 100716
20:00+1ю3465100 0.0 100760